Weather History for KCKV - April, 2013

Change the Weather History Date:

Wednesday, April 3, 2013

  Actual Average Record
Temperature  
Mean Temperature 44 °F -  
Max Temperature 54 °F - 87 °F (1963)
Min Temperature 33 °F - 27 °F (1987)
Degree Days  
Heating Degree Days 21    
Month to date heating degree days 61  
Since 1 July heating degree days 3672  
Cooling Degree Days 0    
Month to date cooling degree days 0  
Moisture  
Dew Point 22 °F    
Average Humidity 44    
Maximum Humidity 61    
Minimum Humidity 26    
Precipitation  
Precipitation 0.00 in - 1.58 in (1977)
Month to date precipitation 0.00  
Sea Level Pressure  
Sea Level Pressure 30.26 in    
Wind  
Wind Speed 11 mph (ENE)    
Max Wind Speed 21 mph    
Max Gust Speed 28 mph    
Visibility 10 miles    
Events      
T = Trace of Precipitation, MM = Missing Value Source: NWS Daily Summary

Daily Weather History Graph

Daily Weather History Graph

Search for Another Location

Airport or City:

Trip Planner

Search our weather history database for the weather conditions in past years. The results will help you decide how hot, cold, wet, or windy it might be!

Date:

Astronomy

Apr. 03, 2013 Rise Set
Actual Time 6:32 AM CDT 7:13 PM CDT
Civil Twilight 6:06 AM CDT 7:39 PM CDT
Nautical Twilight 5:35 AM CDT 8:10 PM CDT
Astronomical Twilight 5:03 AM CDT 8:42 PM CDT
Moon 2:02 AM CDT (4/3) 12:35 PM CDT (4/3)
Length of Visible Light 13h 33m
Length of Day
12h 41m
Last Quarter, 44% of the Moon is Illuminated
Apr 3
Last Quarter
Apr 10
New
Apr 18
First Quarter
Apr 25
Full
May 2
Last Quarter

Hourly Weather History & Observations

Time (CDT) Temp. Windchill Dew Point Humidity Pressure Visibility Wind Dir Wind Speed Gust Speed Precip Events Conditions
12:52 AM 37.0 °F 32.4 °F 23.0 °F 57% 30.28 in 10.0 mi NNE 5.8 mph - N/A   Clear
1:52 AM 37.0 °F 31.0 °F 23.0 °F 57% 30.27 in 10.0 mi NNE 8.1 mph - N/A   Clear
2:52 AM 36.0 °F 30.3 °F 21.9 °F 57% 30.27 in 10.0 mi NNE 6.9 mph - N/A   Clear
3:52 AM 35.1 °F 28.6 °F 21.9 °F 59% 30.24 in 10.0 mi NNE 8.1 mph - N/A   Clear
4:52 AM 35.1 °F 29.3 °F 21.0 °F 57% 30.25 in 10.0 mi NE 6.9 mph - N/A   Clear
5:52 AM 33.1 °F 27.7 °F 21.0 °F 61% 30.28 in 10.0 mi NE 5.8 mph - N/A   Clear
6:52 AM 35.1 °F 29.3 °F 19.9 °F 54% 30.31 in 10.0 mi ENE 6.9 mph - N/A   Clear
7:52 AM 39.0 °F 32.8 °F 21.0 °F 49% 30.33 in 10.0 mi ENE 9.2 mph - N/A   Clear
8:52 AM 43.0 °F 35.4 °F 19.9 °F 40% 30.32 in 10.0 mi East 16.1 mph - N/A   Clear
9:52 AM 46.9 °F - 21.0 °F 36% 30.31 in 10.0 mi ENE 13.8 mph - N/A   Clear
10:52 AM 48.9 °F - 19.0 °F 31% 30.31 in 10.0 mi ENE 17.3 mph - N/A   Clear
11:52 AM 51.1 °F - 21.9 °F 32% 30.30 in 10.0 mi NE 15.0 mph 21.9 mph N/A   Clear
12:52 PM 52.0 °F - 19.9 °F 28% 30.29 in 10.0 mi ENE 13.8 mph 25.3 mph N/A   Clear
1:52 PM 53.1 °F - 19.9 °F 27% 30.29 in 10.0 mi ENE 11.5 mph 19.6 mph N/A   Clear
2:52 PM 53.1 °F - 19.9 °F 27% 30.28 in 10.0 mi ENE 15.0 mph 21.9 mph N/A   Clear
3:52 PM 53.1 °F - 23.0 °F 31% 30.25 in 10.0 mi East 11.5 mph - N/A   Clear
4:52 PM 53.1 °F - 24.1 °F 32% 30.23 in 10.0 mi East 11.5 mph - N/A   Clear
5:52 PM 52.0 °F - 21.9 °F 31% 30.22 in 10.0 mi East 12.7 mph - N/A   Clear
6:52 PM 50.0 °F - 21.9 °F 33% 30.22 in 10.0 mi East 10.4 mph - N/A   Clear
7:52 PM 48.0 °F - 24.1 °F 39% 30.21 in 10.0 mi ENE 8.1 mph - N/A   Clear
8:52 PM 48.0 °F - 23.0 °F 37% 30.22 in 10.0 mi ENE 11.5 mph - N/A   Clear
9:52 PM 46.0 °F 41.0 °F 23.0 °F 40% 30.21 in 10.0 mi ENE 10.4 mph - N/A   Clear
10:52 PM 46.0 °F 41.4 °F 23.0 °F 40% 30.21 in 10.0 mi ENE 9.2 mph - N/A   Clear
11:52 PM 45.0 °F 40.6 °F 23.0 °F 42% 30.20 in 10.0 mi ENE 8.1 mph - N/A   Clear